Date,TemperatureHighF,TemperatureAvgF,TemperatureLowF,DewpointHighF,DewpointAvgF,DewpointLowF,HumidityHigh,HumidityAvg,HumidityLow,PressureMaxIn,PressureMinIn,WindSpeedMaxMPH,WindSpeedAvgMPH,GustSpeedMaxMPH,PrecipitationSumIn
2013-1-1,38.7,36.1,28.7,37.8,34.3,24.9,97,93,83,30.23,30.04,13,4,13,0.02
2013-1-2,36.1,28.9,24.2,26.5,23.9,21.8,93,82,60,30.32,30.21,10,3,10,0.00
2013-1-3,43.4,29.7,20.4,28.7,24.0,18.7,95,81,50,30.47,30.28,9,1,9,0.00
2013-1-4,45.7,31.2,20.9,31.8,24.5,18.9,94,79,49,30.52,30.43,12,1,12,0.00
2013-1-5,47.5,35.5,22.4,34.4,27.3,20.6,94,74,51,30.44,30.26,10,2,10,0.00
2013-1-6,48.1,38.1,25.6,37.3,32.0,23.1,93,79,59,30.43,30.21,15,4,15,0.00
2013-1-7,48.9,31.7,20.5,30.1,25.0,18.5,96,78,46,30.50,30.27,9,1,9,0.00
2013-1-8,60.5,40.6,25.2,39.6,32.1,22.8,95,75,40,30.35,30.22,12,1,12,0.00
2013-1-9,56.1,48.9,40.6,51.7,45.9,35.8,98,89,82,30.44,30.27,11,2,11,0.08
2013-1-10,66.4,61.2,47.8,62.1,58.1,46.3,96,90,85,30.43,29.91,22,7,22,0.43
2013-1-11,70.2,61.4,51.2,62.8,55.1,48.6,97,81,55,30.04,29.88,21,6,21,0.37
2013-1-12,70.7,68.2,63.9,66.6,64.5,60.8,96,88,81,29.99,29.76,20,6,20,0.00
2013-1-13,70.2,46.3,30.5,64.4,44.1,26.4,98,92,81,30.30,29.75,20,6,20,1.98
2013-1-14,31.2,28.7,25.9,27.1,24.3,21.8,89,84,75,30.46,30.29,16,7,16,0.00
2013-1-15,32.0,29.0,25.3,30.3,26.4,22.6,94,90,84,30.34,30.07,15,6,15,0.01
2013-1-16,34.0,32.7,31.3,32.2,30.9,29.2,96,93,87,30.19,30.06,9,1,9,0.00
2013-1-17,48.5,37.6,31.1,36.9,31.5,27.5,95,79,63,30.49,30.14,23,6,23,0.01
2013-1-18,51.9,37.1,24.4,31.1,27.5,22.7,94,71,40,30.61,30.37,10,2,10,0.00
2013-1-19,59.1,48.2,31.8,34.7,32.1,28.8,91,55,35,30.38,30.13,20,6,20,0.00
2013-1-20,52.1,41.1,30.1,36.7,26.9,17.1,94,60,29,30.31,30.17,9,2,9,0.00
2013-1-21,37.9,30.9,25.6,22.1,17.1,10.4,75,57,40,30.36,30.24,20,5,20,0.00
2013-1-22,30.5,25.3,19.4,12.2,7.7,4.1,62,47,33,30.50,30.35,12,4,12,0.00
2013-1-23,52.9,33.5,17.9,34.0,23.0,7.8,92,67,44,30.42,30.17,12,2,12,0.00
2013-1-24,36.1,30.9,25.2,31.8,16.6,9.1,96,57,39,30.56,30.26,18,7,18,0.00
2013-1-25,35.7,31.7,26.7,33.9,26.7,10.0,96,84,41,30.32,30.12,10,2,10,0.11
2013-1-26,48.6,34.3,25.3,36.0,29.0,24.0,97,82,50,30.39,30.28,8,1,8,0.01
2013-1-27,52.1,39.9,28.9,45.1,36.7,27.1,97,89,69,30.37,30.18,13,2,13,0.02
2013-1-28,63.2,57.2,51.8,56.8,51.0,40.8,92,80,62,30.19,30.09,20,5,20,0.16
2013-1-29,72.2,65.7,58.6,64.3,60.3,54.3,90,83,75,30.09,29.51,27,9,27,0.00
2013-1-30,72.3,50.2,34.9,64.4,45.1,24.7,97,83,65,29.96,29.42,33,9,33,1.61
2013-1-31,46.2,36.9,26.5,34.9,26.5,20.0,93,67,47,30.32,29.96,23,8,23,0.03
2013-2-1,30.5,23.8,17.0,20.2,13.2,8.2,78,64,45,30.57,30.32,16,4,16,0.01
2013-2-2,42.4,33.4,23.4,36.3,27.9,17.5,94,81,54,30.37,30.12,20,3,20,0.03
2013-2-3,46.1,38.2,28.7,35.7,30.2,24.8,95,74,52,30.21,30.04,18,5,18,0.01
2013-2-4,53.3,42.4,27.9,41.3,32.1,25.4,92,70,40,30.15,29.92,23,3,23,0.00
2013-2-5,60.8,49.1,35.5,44.4,39.6,32.3,88,71,43,30.10,29.94,11,3,11,0.00
2013-2-6,56.3,42.8,30.4,36.6,33.1,29.3,97,72,38,30.27,30.10,8,1,8,0.00
2013-2-7,68.8,50.2,41.3,49.8,39.8,33.2,85,69,47,30.13,29.91,13,2,13,0.00
2013-2-9,48.2,47.4,46.6,34.5,32.9,31.3,62,57,53,30.16,30.12,9,2,9,0.00
2013-2-10,59.7,53.9,46.4,56.1,45.9,33.3,96,76,51,30.12,29.80,28,7,28,0.37
2013-2-11,58.4,48.0,34.3,56.1,36.2,29.6,92,66,38,30.19,29.90,15,4,15,0.00
2013-2-12,51.4,41.8,29.0,38.7,32.1,27.7,97,71,45,30.19,29.86,11,2,11,0.00
2013-2-13,44.9,39.7,35.0,38.6,36.5,33.3,95,88,73,30.01,29.79,13,4,13,0.29
2013-2-14,61.1,47.0,37.2,41.5,37.3,35.1,93,72,42,30.04,29.96,16,4,16,0.00
2013-2-15,50.3,40.6,30.9,39.6,30.3,17.9,97,69,43,30.24,30.03,17,4,17,0.00
2013-2-16,39.8,30.6,22.1,25.1,18.1,10.2,91,62,33,30.26,30.18,18,3,18,0.00
2013-2-17,48.0,32.8,18.4,27.5,19.9,15.4,89,62,33,30.31,30.14,10,2,10,0.00
2013-2-18,62.8,50.9,35.3,47.4,36.8,23.0,95,61,35,30.15,29.79,38,10,38,0.66
2013-2-19,49.9,40.2,29.9,48.0,28.1,18.3,93,64,40,30.29,29.85,28,8,28,0.00
2013-2-20,35.7,29.9,24.7,21.2,17.7,14.7,74,61,46,30.40,30.28,11,4,11,0.01
2013-2-21,40.7,34.4,27.0,39.4,27.3,20.1,96,76,47,30.30,29.86,24,6,24,0.84
2013-2-22,56.2,44.9,35.0,45.3,40.4,32.9,98,85,64,30.07,29.86,16,4,16,0.02
2013-2-23,51.1,38.9,30.5,34.8,30.3,27.3,95,73,42,30.07,29.95,10,3,10,0.00
2013-2-24,54.4,39.3,24.7,30.4,27.3,22.8,95,66,35,30.18,30.02,12,3,12,0.00
2013-2-25,61.2,50.1,37.1,47.6,33.3,26.6,86,54,33,30.05,29.46,21,8,21,0.05
2013-2-26,52.8,47.0,40.3,49.6,43.2,34.9,95,87,70,29.72,29.38,23,8,23,0.43
2013-2-27,40.6,39.2,36.2,35.7,33.4,31.7,90,79,73,29.93,29.72,28,8,28,0.01
2013-2-28,39.7,36.6,34.4,33.7,31.2,27.8,92,81,69,30.10,29.91,15,5,15,0.02
2013-3-1,39.7,35.2,32.9,37.1,33.3,31.4,96,93,82,30.12,30.06,11,4,11,0.08
2013-3-2,34.2,32.2,30.6,31.5,28.7,24.7,95,87,78,30.22,30.09,16,6,16,0.08
2013-3-3,44.2,34.6,25.3,28.0,21.6,17.0,81,60,37,30.23,30.12,10,3,10,0.00
2013-3-4,61.2,47.8,35.4,42.9,29.9,22.6,78,51,34,30.15,29.80,16,4,16,0.01
2013-3-5,51.9,43.2,34.5,51.3,39.2,22.6,98,86,59,30.08,29.75,26,7,26,0.61
2013-3-6,43.4,37.0,32.0,30.7,28.2,26.0,84,71,57,30.36,30.07,23,7,23,0.00
2013-3-7,44.7,36.2,30.8,32.1,28.8,26.0,89,75,58,30.44,30.35,12,4,12,0.00
2013-3-8,56.7,41.8,26.6,34.0,29.3,24.8,95,65,34,30.46,30.28,12,3,12,0.00
2013-3-9,67.3,54.1,41.7,38.9,34.1,30.7,75,49,26,30.29,29.99,14,3,14,0.00
2013-3-10,72.1,61.5,53.7,56.1,45.6,36.5,97,59,37,30.00,29.74,28,7,28,1.13
2013-3-11,53.6,44.4,39.4,52.5,39.7,32.1,97,84,68,30.03,29.76,20,6,20,1.22
2013-3-12,54.2,42.5,29.3,34.5,30.8,27.4,95,66,38,30.18,30.03,15,4,15,0.00
2013-3-13,46.0,39.0,28.0,30.9,24.1,20.0,82,56,41,30.45,30.18,23,7,23,0.00
2013-3-14,48.1,35.8,22.4,38.5,27.5,19.9,95,75,37,30.45,30.18,9,2,9,0.09
2013-3-15,77.4,57.5,33.8,51.2,43.4,32.6,97,65,37,30.18,29.81,20,5,20,0.02
2013-3-16,75.0,63.8,48.8,54.6,49.3,42.4,79,60,47,29.97,29.79,21,8,21,0.00
2013-3-17,48.7,46.0,44.0,45.5,43.1,40.4,95,90,79,30.00,29.72,15,6,15,0.08
2013-3-18,62.9,49.2,36.5,58.2,46.4,35.1,98,90,79,30.05,29.67,16,4,16,1.08
2013-3-19,55.6,43.3,31.3,36.0,26.4,13.4,98,59,20,30.22,30.05,15,3,15,0.01
2013-3-20,49.6,37.8,28.3,33.8,26.6,17.8,89,65,47,30.22,30.09,23,5,23,0.00
2013-3-21,44.8,34.8,20.7,23.9,18.5,14.7,85,54,31,30.14,29.98,11,3,11,0.00
2013-3-22,46.9,40.8,35.1,30.8,24.8,20.6,62,53,44,30.06,29.99,9,4,9,0.00
2013-3-23,58.4,48.4,41.8,46.5,39.0,29.0,96,71,56,30.02,29.71,20,4,20,0.15
2013-3-24,49.5,43.0,34.7,47.5,40.3,30.3,98,90,78,29.79,29.47,32,8,32,0.57
2013-3-25,37.9,35.3,32.3,31.5,29.6,26.8,94,79,70,30.18,29.79,24,10,24,0.00
2013-3-26,42.1,36.2,29.4,32.5,30.0,26.7,96,79,60,30.39,30.18,13,5,13,0.10
2013-3-27,52.6,38.6,24.4,32.0,27.8,22.7,94,69,38,30.45,30.33,11,2,11,0.00
2013-3-28,62.1,48.2,34.9,42.0,35.0,30.3,90,63,35,30.41,30.27,8,2,8,0.00
2013-3-29,52.3,48.2,43.2,48.7,44.3,37.7,95,87,67,30.32,30.20,12,1,12,0.25
2013-3-30,54.3,48.7,39.4,53.5,46.6,38.4,98,93,80,30.22,29.92,12,2,12,0.35
2013-3-31,61.9,53.8,42.9,53.9,50.3,41.6,98,89,59,29.96,29.89,10,2,10,0.03
2013-4-1,61.6,49.5,38.9,42.0,37.1,27.4,98,65,42,30.20,29.93,15,4,15,0.00
2013-4-2,49.0,43.9,40.2,32.2,26.3,20.3,69,50,34,30.32,30.20,14,4,14,0.00
2013-4-3,54.9,47.0,37.0,28.0,24.9,21.0,60,43,29,30.35,30.19,20,7,20,0.00
2013-4-4,46.4,44.3,40.3,44.7,37.5,25.0,97,80,44,30.19,30.03,12,2,12,0.29
2013-4-5,69.8,52.8,37.2,47.4,39.6,35.7,98,67,29,30.16,30.05,13,2,13,0.00
2013-4-6,76.1,60.2,38.9,47.7,39.9,36.6,92,53,26,30.13,29.92,18,5,18,0.00
2013-4-7,76.4,67.3,61.4,55.5,49.4,41.5,66,53,41,30.03,29.94,18,6,18,0.00
2013-4-8,78.9,68.2,56.2,59.0,54.2,49.3,81,62,43,29.99,29.88,22,5,22,0.00
2013-4-9,78.5,69.5,57.2,65.1,60.9,52.4,90,75,62,30.06,29.93,15,4,15,0.00
2013-4-10,87.3,76.8,69.4,64.6,62.2,57.4,80,62,43,29.99,29.72,20,6,20,0.00
2013-4-11,77.8,60.2,49.0,62.1,55.3,45.9,97,86,51,29.74,29.58,15,5,15,2.35
2013-4-12,63.9,51.8,37.5,45.8,41.1,36.1,96,69,44,30.03,29.74,20,5,20,0.00
2013-4-13,69.1,54.0,36.4,46.2,38.5,34.3,94,59,30,30.13,29.98,9,2,9,0.00
2013-4-14,76.3,61.0,46.1,52.6,47.3,42.5,92,64,34,29.99,29.82,26,5,26,0.00
2013-4-15,84.7,70.3,54.6,61.3,56.8,51.9,93,65,37,29.96,29.84,15,4,15,0.00
2013-4-16,81.0,73.5,66.9,69.9,66.0,60.7,93,78,65,30.08,29.94,15,4,15,0.00
2013-4-17,88.8,76.7,64.1,71.0,65.9,62.9,97,72,45,30.10,29.88,17,4,17,0.00
2013-4-18,84.9,76.8,55.3,67.7,64.0,53.9,95,66,49,29.88,29.58,24,10,24,1.19
2013-4-19,55.2,44.9,37.5,54.1,37.8,32.3,96,77,57,30.13,29.63,20,6,20,0.18
2013-4-20,62.9,48.8,32.6,42.5,35.9,31.3,97,66,35,30.34,30.14,13,2,13,0.01
2013-4-21,66.7,52.8,36.7,42.7,36.1,28.4,90,57,25,30.42,30.25,13,3,13,0.00
2013-4-22,75.8,59.7,41.8,49.0,44.2,38.1,91,61,33,30.28,30.06,12,2,12,0.00
2013-4-23,77.3,64.8,51.0,58.6,54.3,46.9,94,70,49,30.11,29.91,18,5,18,0.00
2013-4-24,67.7,50.7,37.6,60.3,45.9,36.2,95,84,70,30.32,29.84,18,5,18,0.58
2013-4-25,67.0,49.5,32.0,44.8,38.9,31.0,97,72,37,30.41,30.31,12,2,12,0.01
2013-4-26,54.7,49.1,40.7,51.2,46.3,39.1,96,91,71,30.48,30.28,10,2,10,0.31
2013-4-27,61.5,55.5,49.8,60.1,54.6,48.7,98,97,93,30.36,29.92,15,3,15,3.65
2013-4-28,64.9,58.6,50.0,59.2,55.3,48.9,99,90,69,29.97,29.89,12,2,12,0.04
2013-4-29,76.9,60.1,45.9,58.2,52.1,45.1,98,78,43,30.04,29.90,12,2,12,0.00
2013-4-30,84.1,65.9,49.0,61.5,54.6,47.9,97,72,36,30.01,29.92,12,2,12,0.00
2013-5-1,83.0,68.2,53.4,66.3,59.2,51.9,96,76,43,30.10,30.00,12,2,12,0.00
2013-5-2,78.8,67.3,56.4,62.7,59.7,55.3,97,79,51,30.16,30.02,11,2,11,0.01
2013-5-3,77.0,63.8,44.3,62.1,56.1,42.9,95,78,53,30.04,29.77,22,5,22,0.39
2013-5-4,53.7,46.6,42.7,45.7,43.1,41.1,96,88,70,29.99,29.88,12,2,12,0.63
2013-5-5,62.7,52.5,43.0,53.9,48.4,41.8,97,87,66,29.96,29.83,9,2,9,0.00
2013-5-6,69.5,57.7,52.4,59.7,54.4,51.1,97,89,55,29.94,29.81,9,2,9,0.42
2013-5-7,73.3,61.6,52.4,61.0,56.9,51.6,98,86,57,30.01,29.92,8,1,8,0.08
2013-5-8,81.9,67.5,53.4,63.6,57.9,52.6,98,75,42,30.05,29.96,11,2,11,0.00
2013-5-9,82.2,70.0,57.8,66.9,60.8,56.4,96,75,48,30.06,29.94,14,3,14,0.00
2013-5-10,72.7,65.8,62.8,67.8,63.5,61.9,98,93,82,29.97,29.85,20,2,20,1.42
2013-5-11,70.5,62.1,56.9,63.4,55.9,46.8,98,81,53,30.11,29.93,13,3,13,0.05
2013-5-12,65.1,54.4,43.0,47.4,39.9,31.4,94,62,30,30.21,30.11,10,3,10,0.00
2013-5-13,72.4,56.2,38.9,49.2,42.2,35.4,97,66,29,30.28,30.14,13,2,13,0.00
2013-5-14,87.7,69.5,47.9,62.8,55.5,46.0,95,65,38,30.16,29.95,16,4,16,0.00
2013-5-15,86.0,73.4,60.9,62.2,56.4,46.3,92,59,28,30.07,29.94,21,3,21,0.00
2013-5-16,81.7,72.1,60.5,67.3,62.7,57.5,92,74,54,30.01,29.91,9,1,9,0.00
2013-5-17,70.2,66.6,63.1,67.5,64.7,60.8,97,94,85,30.02,29.92,13,1,13,0.60
2013-5-18,83.5,73.2,66.6,71.7,68.2,65.8,98,86,61,30.00,29.92,7,1,7,0.01
2013-5-19,88.5,76.9,67.8,77.3,71.5,66.9,98,84,61,29.97,29.88,13,2,13,0.14
2013-5-20,87.8,78.3,70.5,74.0,70.9,68.1,93,79,58,29.98,29.85,14,4,14,0.00
2013-5-21,80.9,70.8,65.4,71.0,67.1,63.8,97,88,66,29.99,29.80,31,3,31,1.63
2013-5-22,77.5,68.9,62.7,69.4,65.0,61.1,98,88,68,29.87,29.76,13,3,13,0.18
2013-5-23,75.4,67.7,60.0,63.2,59.7,55.2,97,77,56,30.13,29.87,18,4,18,0.00
2013-5-24,71.6,60.5,51.3,55.2,50.3,47.1,94,71,44,30.34,30.13,16,4,16,0.00
2013-5-25,78.7,62.4,46.1,56.8,51.3,44.7,97,72,33,30.36,30.15,8,1,8,0.00
2013-5-26,85.1,68.8,53.2,64.8,58.4,51.8,96,73,42,30.23,30.09,8,1,8,0.00
2013-5-27,83.8,71.9,55.1,67.9,62.1,53.8,97,73,48,30.12,29.96,14,3,14,0.00
2013-5-28,87.3,77.7,65.9,70.1,64.0,60.4,84,64,42,30.05,29.96,17,4,17,0.00
2013-5-29,88.8,75.9,61.4,71.5,65.8,59.1,95,73,44,30.09,29.96,14,3,14,0.00
2013-5-30,87.0,79.3,72.5,73.4,69.4,66.0,81,72,59,30.07,29.94,20,5,20,0.00
2013-5-31,81.4,75.6,68.8,76.0,70.5,67.0,97,85,72,30.02,29.88,20,4,20,2.04
2013-6-1,78.0,70.2,65.4,70.6,67.0,63.4,97,90,75,29.98,29.79,18,3,18,0.36
2013-6-2,80.0,71.3,62.9,69.8,65.5,60.6,98,83,57,29.96,29.88,10,2,10,0.03
2013-6-3,77.3,67.8,59.4,64.3,60.3,57.4,96,79,56,30.05,29.94,9,2,9,0.00
2013-6-4,82.2,68.9,54.3,66.7,60.5,53.1,97,77,49,30.06,29.96,8,1,8,0.01
2013-6-5,86.0,74.5,63.0,74.2,68.1,61.6,97,82,58,29.98,29.80,8,0,8,0.02
2013-6-6,81.6,72.9,67.1,72.9,68.7,65.7,98,88,66,29.82,29.75,9,2,9,0.22
2013-6-7,80.8,71.9,64.7,70.8,66.2,62.8,97,83,64,29.87,29.76,10,1,10,0.00
2013-6-8,82.2,70.9,60.0,67.6,63.2,58.8,97,79,48,30.00,29.86,2,0,2,0.00
2013-6-9,85.0,70.2,60.8,73.3,66.3,59.5,97,88,63,30.02,29.82,15,1,15,1.17
2013-6-10,85.3,74.0,66.0,74.0,67.7,65.0,98,83,53,29.92,29.83,20,3,20,0.35
2013-6-11,93.3,79.1,64.1,79.6,71.3,63.1,97,79,54,30.00,29.91,8,1,8,0.01
2013-6-12,92.3,84.3,76.1,79.4,75.8,72.6,95,76,62,30.02,29.84,15,4,15,0.00
2013-6-13,87.0,79.5,65.9,77.3,71.6,64.0,94,77,63,29.96,29.81,20,6,20,0.00
2013-6-14,83.2,71.7,58.6,66.3,61.7,56.9,96,73,49,30.05,29.94,14,2,14,0.00
2013-6-15,87.3,74.3,61.4,71.5,65.9,60.1,97,78,49,30.09,29.97,10,1,10,0.00
2013-6-16,87.5,76.9,66.8,76.4,70.9,65.2,96,83,62,30.05,29.93,12,1,12,0.00
2013-6-17,89.0,75.5,68.8,78.4,71.4,66.5,97,88,63,29.96,29.87,21,1,21,0.26
2013-6-18,84.9,73.9,66.6,73.8,68.7,65.0,97,85,60,29.95,29.82,13,2,13,0.26
2013-6-19,86.3,73.6,66.9,71.2,68.2,65.7,97,85,56,30.05,29.94,1,0,1,0.00
2013-6-20,90.8,77.5,66.2,76.9,70.2,65.0,97,80,48,30.13,30.05,0,0,0,0.00
2013-6-21,90.5,79.2,67.5,76.1,70.9,66.0,96,77,54,30.18,30.07,10,1,10,0.01
2013-6-22,89.3,79.4,68.0,75.2,71.8,66.8,97,79,56,30.16,30.04,9,1,9,0.01
2013-6-23,89.4,78.2,68.4,74.8,70.7,66.5,96,80,49,30.12,30.01,10,1,10,0.00
2013-6-24,88.3,78.1,70.3,77.6,73.2,68.7,96,86,65,30.14,30.02,10,1,10,0.00
2013-6-25,90.3,81.3,71.5,79.3,74.8,70.2,96,82,64,30.06,29.91,11,2,11,0.00
2013-6-26,90.3,81.4,70.2,78.9,74.1,68.3,96,80,64,29.96,29.77,26,4,26,0.68
2013-6-27,93.3,81.7,70.8,81.0,74.6,69.6,97,81,53,29.88,29.78,12,2,12,0.03
2013-6-28,89.9,78.8,70.8,77.1,72.1,66.2,97,81,51,29.82,29.65,9,1,9,0.00
2013-6-29,86.3,74.5,62.8,70.7,65.3,61.0,96,75,50,29.71,29.61,15,2,15,0.11
2013-6-30,81.2,70.0,61.8,70.4,65.2,60.8,98,86,62,29.81,29.68,11,1,11,0.01
2013-7-1,75.7,70.0,66.0,69.7,66.6,64.8,97,89,77,29.90,29.77,10,2,10,0.78
2013-7-2,79.5,70.2,65.0,70.0,66.5,64.4,98,89,63,30.02,29.87,8,2,8,0.05
2013-7-3,84.2,70.8,60.2,70.4,65.6,59.3,98,85,56,30.10,30.02,7,0,7,0.01
2013-7-4,74.6,69.6,66.4,70.7,67.8,65.2,98,94,85,30.08,30.01,11,1,11,0.04
2013-7-5,82.5,73.0,68.3,74.7,69.6,66.8,97,90,69,30.10,30.02,13,0,13,0.20
2013-7-6,84.3,73.4,65.6,74.6,69.7,64.4,98,89,69,30.12,29.99,15,2,15,2.12
2013-7-7,88.7,75.9,65.0,77.1,70.7,64.4,98,85,60,30.11,30.02,7,0,7,0.28
2013-7-8,91.0,78.5,68.0,77.2,72.7,67.1,98,84,56,30.15,30.05,6,1,6,0.00
2013-7-9,92.3,81.5,69.8,81.7,75.3,68.7,98,83,62,30.11,29.99,8,1,8,0.00
2013-7-10,91.0,80.4,75.1,81.0,75.8,73.5,95,87,69,30.01,29.94,9,1,9,0.00
2013-7-12,83.5,75.6,64.5,67.6,63.6,59.0,93,68,44,30.04,29.97,13,4,13,0.00
2013-7-13,84.5,72.2,59.4,69.4,64.4,58.3,97,79,51,30.05,29.97,12,0,12,0.00
2013-7-14,87.2,76.2,66.8,76.9,71.3,65.6,97,86,67,30.12,30.01,14,2,14,0.00
2013-7-15,89.1,79.6,72.3,76.7,73.4,70.7,96,82,62,30.23,30.12,12,1,12,0.00
2013-7-16,92.9,83.0,69.6,77.4,74.5,68.7,98,77,55,30.30,30.21,0,0,0,0.00
2013-7-17,93.9,82.7,71.8,81.2,76.3,70.9,98,83,56,30.30,30.16,8,1,8,0.00
2013-7-18,90.9,78.4,70.0,81.3,74.7,68.0,98,89,66,30.18,30.03,23,1,23,0.42
2013-7-19,91.7,79.9,67.9,79.4,74.1,67.2,99,84,60,30.07,29.92,8,0,8,0.00
2013-7-20,91.1,80.6,72.0,78.1,73.7,68.0,97,81,60,29.96,29.83,13,2,13,0.14
2013-7-21,90.3,77.3,71.3,79.4,73.5,70.1,98,89,64,29.95,29.84,10,1,10,0.29
2013-7-22,83.3,74.8,70.5,76.9,72.5,69.5,98,93,77,29.90,29.81,14,2,14,1.55
2013-7-23,88.8,78.8,68.4,77.5,73.3,66.0,98,84,64,29.91,29.78,13,2,13,0.07
2013-7-24,84.8,74.0,66.0,76.0,68.5,63.8,98,84,63,29.97,29.79,13,2,13,0.03
2013-7-25,82.5,71.8,61.4,69.6,64.3,60.1,96,79,54,30.06,29.95,10,2,10,0.00
2013-7-26,84.1,71.7,60.5,70.4,65.2,59.4,98,82,51,30.07,29.94,0,0,0,0.00
2013-7-27,84.2,74.1,66.4,73.7,68.6,62.1,97,84,64,29.99,29.86,10,0,10,0.01
2013-7-28,77.5,68.2,57.9,64.8,59.2,53.8,95,75,47,30.08,29.97,0,0,0,0.00
2013-7-29,79.4,69.7,59.2,68.7,63.5,58.1,98,82,58,30.18,30.07,2,0,2,0.00
2013-7-30,74.3,70.2,64.3,72.2,68.1,63.1,97,93,79,30.16,30.05,2,0,2,0.18
2013-7-31,87.3,76.5,69.9,80.3,73.4,69.0,98,91,72,30.05,29.91,2,0,2,0.23
2013-8-1,85.3,75.2,68.5,74.5,70.5,67.3,98,86,63,30.04,29.95,10,1,10,0.00
2013-8-2,86.7,74.7,62.5,73.9,68.2,61.6,98,82,51,30.04,29.95,0,0,0,0.00
2013-8-3,81.9,74.0,69.4,76.5,71.9,67.8,98,93,83,30.05,29.94,7,0,7,0.46
2013-8-4,82.8,75.0,66.7,72.0,68.3,63.4,98,81,58,30.11,30.03,8,2,8,0.00
2013-8-5,80.2,70.9,66.2,70.0,66.6,63.8,97,87,60,30.09,29.93,0,0,0,0.08
2013-8-6,83.2,75.4,69.0,78.1,73.2,67.8,98,93,77,29.96,29.89,7,0,7,0.16
2013-8-7,85.8,77.1,71.9,79.3,75.2,71.3,99,94,78,29.96,29.87,2,0,2,0.21
2013-8-8,84.2,76.6,72.5,79.4,74.7,70.2,98,94,84,29.96,29.88,18,0,18,0.39
2013-8-9,90.0,79.7,73.6,81.0,75.8,72.4,98,89,70,30.02,29.91,9,0,9,0.06
2013-8-10,83.6,76.2,71.3,77.3,73.8,70.2,99,93,75,30.12,30.01,18,0,18,0.96
2013-8-11,87.4,78.7,72.7,79.4,75.6,72.0,99,91,72,30.12,30.03,0,0,0,0.94
2013-8-12,86.4,76.8,72.3,78.1,74.4,71.0,99,93,72,30.06,29.91,12,0,11,1.07
2013-8-13,84.3,76.4,69.4,76.8,71.6,65.3,98,86,66,30.01,29.91,11,1,11,0.00
2013-8-14,76.2,67.4,59.3,65.2,58.9,55.6,93,76,51,30.11,30.01,10,0,10,0.00
2013-8-15,59.2,57.7,56.5,57.1,56.1,55.1,96,95,93,30.10,30.07,0,0,0,0.00
2013-8-17,79.5,73.1,69.6,70.5,68.6,67.7,94,86,68,30.08,30.03,0,0,0,0.28
2013-8-18,80.3,71.5,67.3,71.9,68.4,66.3,98,91,70,30.15,30.05,0,0,0,0.03
2013-8-19,85.5,73.3,64.0,74.1,69.0,63.4,99,88,62,30.12,30.02,0,0,0,0.01
2013-8-20,88.2,76.7,67.4,77.2,71.8,66.8,99,86,63,30.11,30.02,1,0,0,0.00
2013-8-21,90.5,78.5,67.5,78.2,72.5,66.5,98,84,55,30.14,30.05,0,0,0,0.00
2013-8-22,90.7,79.9,69.0,78.9,73.9,68.1,98,83,58,30.13,30.01,0,0,0,0.00
2013-8-23,91.8,77.9,70.1,79.2,73.1,69.2,98,86,59,30.07,29.98,17,0,17,0.01
2013-8-24,89.6,77.7,67.7,75.5,71.4,66.8,98,83,56,30.18,30.06,8,0,8,0.01
2013-8-25,88.3,77.2,68.5,76.5,71.6,67.0,97,84,62,30.28,30.18,8,0,8,0.00
2013-8-26,88.3,76.4,66.4,77.0,71.0,65.5,98,85,62,30.27,30.11,1,0,0,0.00
2013-8-27,87.4,76.6,66.1,78.4,71.7,65.2,98,86,65,30.14,30.02,1,0,1,0.01
2013-8-28,91.5,78.5,67.5,77.7,72.6,66.6,98,84,56,30.07,29.98,0,0,0,0.01
2013-8-29,94.2,80.8,69.3,80.5,74.7,68.5,98,83,56,30.03,29.93,1,0,1,0.00
2013-8-30,94.5,81.9,72.6,79.8,75.2,71.7,98,82,55,29.98,29.87,1,0,1,0.00
2013-8-31,93.8,81.9,72.0,79.0,75.4,71.0,97,82,58,29.91,29.78,1,0,1,0.00
2013-9-1,84.8,74.6,67.0,75.1,71.2,65.2,97,90,71,29.94,29.78,17,3,17,0.80
2013-9-2,89.2,76.2,69.1,79.5,72.9,68.5,98,90,63,29.90,29.81,7,0,7,0.29
2013-9-3,85.2,73.9,65.3,71.9,68.0,64.7,99,84,55,30.04,29.90,2,0,2,0.01
2013-9-4,83.8,71.4,61.3,69.8,64.7,60.3,98,82,53,30.14,30.04,1,0,1,0.01
2013-9-5,84.5,71.0,59.7,70.9,65.5,59.1,99,85,57,30.19,30.10,1,0,1,0.01
2013-9-6,87.6,73.7,62.8,73.2,67.9,62.1,99,84,57,30.17,30.05,1,0,1,0.00
2013-9-7,89.7,75.4,62.8,75.5,69.5,61.9,98,84,55,30.08,29.96,0,0,0,0.01
2013-9-8,91.3,78.6,68.3,78.2,72.9,67.1,97,84,57,29.99,29.90,0,0,0,0.01
2013-9-9,90.6,79.3,72.9,80.1,74.8,70.5,96,87,67,30.03,29.95,0,0,0,0.02
2013-9-10,86.5,77.4,72.2,77.5,74.0,71.0,97,90,70,30.15,30.02,7,0,7,0.00
2013-9-11,91.1,76.6,69.6,80.0,72.5,68.1,98,88,64,30.17,30.06,17,1,17,0.54
2013-9-12,88.1,76.6,70.5,79.3,73.6,69.9,99,91,70,30.05,29.91,10,0,10,0.30
2013-9-13,76.1,67.9,56.9,69.8,59.1,54.0,97,75,53,30.05,29.96,15,3,15,0.02
2013-9-14,74.0,61.3,50.4,59.5,54.1,49.0,96,79,51,30.14,30.04,14,2,14,0.01
2013-9-15,82.5,64.9,50.8,65.0,58.3,49.8,98,82,48,30.11,30.06,9,0,9,0.00
2013-9-16,76.9,67.6,58.3,69.7,64.0,57.2,97,89,74,30.18,30.09,4,0,0,0.01
2013-9-17,82.7,70.7,63.4,70.3,66.0,62.2,97,86,61,30.20,30.07,0,0,0,0.00
2013-9-18,84.0,72.7,65.6,74.7,69.2,64.7,98,89,72,30.14,30.03,2,0,2,0.01
2013-9-19,88.1,74.9,66.3,75.3,70.1,65.6,98,86,62,30.11,29.97,12,0,12,0.00
2013-9-20,83.2,73.1,67.6,74.6,69.7,65.8,98,90,69,29.99,29.80,9,0,9,1.80
2013-9-21,73.3,65.4,55.9,67.6,59.8,53.3,98,84,52,29.89,29.77,17,3,17,0.18
2013-9-22,75.6,62.0,50.9,59.5,55.0,50.1,98,80,50,29.98,29.88,1,0,1,0.02
2013-9-23,79.5,63.2,50.4,63.5,57.2,49.3,98,83,52,30.02,29.93,0,0,0,0.00
2013-9-24,81.8,68.1,56.6,70.4,63.8,55.8,98,87,60,29.98,29.82,4,0,4,0.55
2013-9-25,81.1,70.1,64.1,70.4,66.9,63.1,98,91,66,29.87,29.79,5,0,5,0.03
2013-9-26,82.9,69.6,61.1,70.4,65.2,60.5,99,87,59,30.02,29.86,0,0,0,0.00
2013-9-27,62.6,61.8,61.8,61.3,60.9,60.9,97,97,96,30.02,30.02,0,0,0,0.00
2013-9-29,63.9,63.5,63.0,63.3,62.8,61.8,98,98,96,30.02,30.00,0,0,0,0.65
2013-9-30,73.8,67.3,63.3,66.9,64.5,62.6,98,91,74,30.03,29.95,10,1,10,0.00
2013-10-1,79.8,70.4,63.6,72.7,67.9,62.7,98,92,76,30.08,30.00,0,0,0,0.09
2013-10-2,82.0,73.8,69.2,74.1,70.9,68.7,99,91,71,30.11,30.03,6,0,6,0.01
2013-10-3,84.0,73.3,67.0,71.9,68.6,65.8,99,87,59,30.08,29.97,13,0,13,0.02
2013-10-4,86.1,73.4,65.4,76.3,69.8,64.5,98,89,66,30.08,29.98,10,0,10,0.24
2013-10-5,85.7,75.5,67.4,76.0,71.5,66.5,98,88,68,30.03,29.85,12,0,12,0.01
2013-10-6,75.2,64.9,55.9,70.8,63.2,54.3,98,94,84,29.92,29.82,15,2,15,1.75
2013-10-7,66.7,56.2,45.0,54.5,50.5,44.3,99,83,59,30.15,29.96,10,1,10,0.01
2013-10-8,72.2,56.9,46.4,55.3,50.0,45.6,98,81,45,30.20,30.10,14,2,14,0.01
2013-10-9,76.0,56.2,49.9,66.1,53.5,48.8,98,92,69,30.18,30.11,1,0,1,0.01
2013-10-10,68.5,64.1,61.4,66.4,62.9,60.4,97,96,93,30.05,30.03,0,0,0,0.00
2013-10-11,79.9,65.0,55.2,67.8,61.0,54.5,99,88,58,30.09,29.99,0,0,0,0.01
2013-10-12,78.4,65.2,53.8,69.5,61.9,53.0,99,90,66,30.13,30.01,0,0,0,0.01
2013-10-13,77.8,67.1,57.1,67.7,62.5,52.9,99,86,65,30.27,30.13,9,0,9,0.00
2013-10-14,77.9,62.6,50.6,66.1,57.3,49.4,98,84,61,30.27,30.10,0,0,0,0.00
2013-10-15,72.8,66.9,62.2,67.2,64.0,60.9,97,91,77,30.10,29.95,12,1,12,0.03
2013-10-16,65.9,59.5,56.0,65.3,58.4,54.8,98,96,90,30.02,29.94,12,1,12,0.34
2013-10-17,56.7,53.0,47.1,56.0,51.3,46.3,98,94,89,30.03,29.93,8,1,8,0.02
2013-10-18,70.0,55.1,42.1,55.2,49.7,41.3,99,84,54,30.10,29.96,7,0,7,0.01
2013-10-19,55.9,49.8,39.9,53.2,47.3,38.9,97,91,68,30.09,29.90,16,2,16,0.12
2013-10-20,65.5,48.5,36.4,48.4,42.4,35.6,98,82,46,30.14,30.02,9,1,9,0.01
2013-10-21,69.8,53.0,38.3,54.6,47.1,37.5,98,83,49,30.09,29.98,12,1,12,0.03
2013-10-22,62.9,53.2,46.1,53.7,45.8,40.2,95,78,44,30.09,29.87,13,2,13,0.04
2013-10-23,54.7,47.0,41.4,48.6,40.4,36.3,94,79,54,30.14,29.90,16,4,16,0.00
2013-10-24,53.7,44.9,33.2,43.9,39.1,31.1,96,81,61,30.41,30.13,12,2,12,0.00
2013-10-25,53.2,38.2,28.7,34.1,30.5,27.3,97,78,39,30.56,30.36,12,1,12,0.00
2013-10-26,58.9,44.8,29.4,47.9,37.7,27.9,96,78,53,30.36,30.09,15,2,15,0.01
2013-10-27,65.6,53.7,44.3,55.2,50.3,43.2,97,89,66,30.13,30.05,7,0,7,0.00
2013-10-28,69.0,59.2,51.9,60.5,56.4,51.1,98,91,69,30.26,30.08,0,0,0,0.04
2013-10-29,66.8,58.1,49.9,63.3,56.3,49.4,99,94,84,30.30,30.14,10,0,10,0.01
2013-10-30,76.7,69.3,63.8,67.1,63.0,59.3,91,81,71,30.18,29.99,13,4,13,0.00
2013-10-31,69.5,64.1,58.2,65.1,59.9,56.8,96,87,73,29.99,29.57,23,5,23,0.16
2013-11-1,70.8,58.0,47.0,57.0,50.5,45.6,99,79,42,29.86,29.70,15,2,15,0.01
2013-11-2,60.2,49.7,40.2,49.4,44.3,38.6,98,83,60,30.21,29.86,14,2,14,0.01
2013-11-3,60.9,45.2,36.3,45.9,37.9,35.5,98,79,42,30.35,30.21,10,1,10,0.00
2013-11-4,63.4,50.6,37.8,48.5,43.1,36.2,96,78,49,30.36,30.26,17,2,17,0.00
2013-11-5,72.1,59.1,49.9,49.7,46.7,42.0,88,65,44,30.37,30.19,15,2,15,0.00
2013-11-6,67.3,59.3,45.0,60.9,53.0,42.7,97,81,59,30.21,30.03,23,5,23,0.32
2013-11-7,55.4,43.8,33.3,42.8,35.3,28.0,95,75,39,30.39,30.20,13,3,13,0.05
2013-11-8,60.0,42.5,30.2,41.6,33.2,29.1,98,75,31,30.44,30.26,9,1,9,0.00
2013-11-9,63.5,44.5,32.7,39.9,36.0,31.2,97,75,38,30.30,30.18,16,2,16,0.00
2013-11-10,64.0,46.9,35.1,46.0,35.3,26.9,98,70,26,30.40,30.26,11,2,11,0.00
2013-11-11,70.1,49.5,30.5,44.1,35.1,29.0,97,65,23,30.34,30.16,12,1,12,0.00
2013-11-12,56.6,38.8,30.2,44.8,29.0,21.3,91,69,44,30.69,30.23,23,9,23,0.04
2013-11-13,44.1,31.8,27.0,24.8,23.7,21.8,86,73,41,30.69,30.47,10,1,10,0.00
2013-11-14,58.1,38.0,24.0,31.0,24.8,21.3,95,66,25,30.47,30.21,13,2,13,0.00
2013-11-15,53.5,44.0,30.6,51.2,40.7,26.5,97,88,69,30.22,30.08,10,0,10,0.02
2013-11-16,66.5,59.8,53.2,62.5,56.9,50.6,96,91,84,30.09,29.88,16,5,16,0.14
2013-11-17,71.0,65.1,50.3,68.3,62.4,47.5,98,91,79,29.95,29.64,23,6,23,1.36
2013-11-18,62.3,48.1,36.4,48.1,37.6,29.7,97,71,37,30.29,29.95,15,2,15,0.00
2013-11-19,51.1,42.3,34.8,34.5,31.8,28.5,96,68,45,30.35,30.22,12,3,12,0.00
2013-11-20,63.0,45.9,30.9,40.5,34.3,28.9,94,68,36,30.26,30.13,13,2,13,0.00
2013-11-21,70.3,57.4,46.4,56.6,49.5,38.9,96,76,53,30.26,30.15,15,3,15,0.00
2013-11-22,60.3,52.9,43.1,58.2,50.5,40.1,98,92,87,30.42,30.19,18,5,18,0.00
2013-11-23,45.4,37.9,25.0,40.2,28.6,15.6,89,71,31,30.65,30.38,21,9,21,0.00
2013-11-24,33.9,27.5,20.3,20.1,16.7,14.2,78,64,48,30.73,30.50,17,5,17,0.00
2013-11-25,44.0,34.7,29.8,33.3,24.8,17.2,94,69,41,30.50,30.22,10,2,10,0.00
2013-11-26,37.4,36.1,34.3,35.6,33.1,26.2,96,89,71,30.22,29.97,21,5,21,0.00
2013-11-27,34.2,27.2,18.7,26.4,15.8,12.4,85,62,47,30.42,30.09,23,6,23,0.00
2013-11-28,44.7,28.8,15.9,23.1,18.4,13.4,92,69,38,30.53,30.38,11,2,11,0.00
2013-11-29,52.7,34.7,22.0,32.0,26.3,19.9,94,74,41,30.63,30.48,10,1,10,0.00
2013-11-30,58.9,41.2,25.7,34.9,27.2,23.5,95,63,27,30.48,30.24,17,3,17,0.00
2013-12-1,55.9,50.2,39.6,41.2,37.3,32.6,82,62,53,30.24,29.95,9,2,9,0.00
2013-12-2,59.6,50.9,44.1,50.5,45.8,40.3,93,83,69,29.95,29.74,7,1,7,0.00
2013-12-3,64.7,55.0,46.0,54.9,51.0,44.6,98,87,65,29.81,29.72,10,1,10,0.00
2013-12-4,75.3,67.4,53.5,63.9,60.9,52.7,98,81,60,29.83,29.69,22,7,22,0.00
2013-12-5,69.2,48.8,33.0,65.7,45.5,31.4,96,88,77,30.18,29.82,21,7,21,0.19
2013-12-6,33.4,30.5,26.6,32.1,28.7,24.3,95,93,91,30.47,30.12,15,6,15,0.17
2013-12-7,27.9,24.9,21.6,26.0,22.4,18.3,93,90,87,30.64,30.39,13,5,13,0.00
2013-12-8,34.6,32.7,27.9,33.8,31.6,26.0,97,96,93,30.39,30.08,8,1,8,0.01
2013-12-9,34.2,31.9,28.3,33.4,28.7,22.8,97,88,78,30.31,30.14,11,4,11,0.03
2013-12-10,38.9,29.7,23.7,28.4,24.1,20.6,94,80,62,30.45,30.23,13,3,13,0.05
2013-12-11,44.2,31.4,19.3,33.7,25.6,17.4,96,80,59,30.63,30.43,15,4,15,0.03
2013-12-12,38.2,26.0,16.7,20.4,16.0,4.1,92,69,30,30.66,30.43,9,2,9,0.00
2013-12-13,44.8,32.0,18.0,35.1,25.5,15.8,94,78,44,30.43,29.99,7,1,7,0.10
2013-12-14,44.7,39.5,34.8,43.9,37.8,32.9,98,94,87,30.09,29.82,15,5,15,0.53
2013-12-15,34.8,33.0,30.8,33.2,29.4,27.5,94,86,79,30.27,30.09,13,4,13,0.00
2013-12-16,55.7,43.2,32.0,39.5,35.1,29.1,91,74,52,30.22,30.08,16,4,16,0.00
2013-12-17,52.4,41.3,27.9,41.2,33.7,25.3,96,76,49,30.33,30.11,14,3,14,0.00
2013-12-18,53.9,38.3,22.7,33.9,25.0,19.5,95,65,27,30.39,30.16,12,2,12,0.00
2013-12-19,60.2,54.3,46.5,50.3,43.0,30.7,74,66,53,30.19,29.99,22,6,22,0.00
2013-12-20,65.4,61.6,57.4,62.1,56.5,48.4,93,84,68,30.00,29.86,20,8,20,0.25
2013-12-21,73.8,67.7,60.7,67.6,63.2,59.1,98,86,76,29.87,29.50,29,10,29,1.71
2013-12-22,62.1,50.3,37.6,60.4,47.6,34.9,95,90,81,30.21,29.58,18,5,18,0.04
2013-12-23,39.4,34.0,26.9,35.3,28.2,23.3,91,79,64,30.52,30.21,14,6,14,0.00
2013-12-24,30.7,25.9,21.4,23.4,16.7,10.9,85,69,45,30.66,30.48,13,4,13,0.00
2013-12-25,46.2,31.7,18.1,26.6,20.4,15.6,91,66,35,30.48,30.32,12,2,12,0.00
2013-12-26,47.1,34.4,26.0,32.8,27.8,24.3,95,78,50,30.48,30.34,7,1,7,0.00
2013-12-27,54.6,35.3,22.5,34.1,27.3,20.5,94,76,42,30.51,30.38,8,1,8,0.01
2013-12-28,45.4,35.6,25.5,39.3,32.5,23.6,97,89,71,30.39,30.01,4,0,4,0.15
2013-12-29,53.3,42.1,31.4,44.5,38.4,27.1,98,87,70,30.21,29.95,15,4,15,0.24
2013-12-30,32.3,28.9,22.6,27.2,24.2,20.5,93,82,76,30.35,30.20,10,2,10,0.00
2013-12-31,45.4,30.6,20.9,28.6,23.9,18.7,93,78,49,30.49,30.34,7,0,7,0.00
2014-1-1,52.3,37.2,23.0,38.9,28.8,21.3,96,75,39,30.35,29.97,13,2,13,0.01
2014-1-2,44.7,30.6,19.3,41.4,26.1,13.0,97,83,70,30.45,29.90,25,8,25,0.08